User: anonymous   Login
Location: Riverside
(39.1734°N, 77.8561°W)
Time: 08:18:31
(UTC+00:00)
Language:

NANOSAT C BR1 - Orbit

View from above orbital plane
View from above orbital plane
View from above satellite
View from above satellite

Ground track
Ground track

The orbit data is extracted from the following two-line orbital elements,

1 40024U 14033Q   19138.74298048  .00000332  00000-0  40470-4 0  9992
2 40024  97.9140  60.7360 0012795 149.4403 210.7562 14.89821954266832
Epoch (UTC): 18 May 2019 17:49:53
Eccentricity: 0.0012795
inclination: 97.9140°
perigee height: 589 km
apogee height: 607 km
right ascension of ascending node: 60.7360°
argument of perigee: 149.4403°
revolutions per day: 14.89821954
mean anomaly at epoch: 210.7562°
orbit number at epoch: 26683

The dashed part of the orbit path shows where the satellite is in the earth's shadow,  

DLR